Location: Aero Estates Airport (historical)
(33.2985°N, 96.8642°W)
Time: 13:20:40
(UTC+00:00)

BlueWalker 3 - Visible Passes

Search period start: 21 January 2026 00:00
Search period end: 31 January 2026 00:00
Orbit: 451 x 463 km, 53.2° (Epoch: 20 January)

Date Brightness Start Highest point End Pass type
(mag) Time Alt. Az. Time Alt. Az. Time Alt. Az.
21 Jan 2.4 00:07:18 10° SSW 00:10:40 41° SE 00:14:01 10° ENE visible
21 Jan 4.0 01:45:44 10° W 01:48:16 18° NW 01:48:24 18° NNW visible
22 Jan 3.7 01:09:52 10° W 01:12:46 23° NW 01:14:44 15° N visible
23 Jan 3.3 00:34:05 10° WSW 00:37:16 30° NW 00:40:27 10° NNE visible
26 Jan 4.5 00:27:50 10° NW 00:28:40 11° NNW 00:29:31 10° NNW visible
